Weather History for Perry, FL

Change the Weather History Date:

Saturday, March 16, 2013

  Actual Average (KCTY) Record (KCTY)
Temperature  
Mean Temperature 56 °F 62 °F  
Max Temperature 73 °F 76 °F 86 °F (2012)
Min Temperature 39 °F 48 °F 32 °F (2012)
Degree Days  
Heating Degree Days 9 4  
Month to date heating degree days 87  
Since 1 July heating degree days 1207  
Cooling Degree Days 0 1  
Month to date cooling degree days 16  
Year to date cooling degree days 43  
Growing Degree Days 6 (Base 50)    
Moisture  
Dew Point 52 °F    
Average Humidity 81    
Maximum Humidity 100    
Minimum Humidity 49    
Precipitation  
Precipitation 0.01 in 0.13 in 1.57 in (2001)
Month to date precipitation 2.14  
Year to date precipitation 9.45  
Sea Level Pressure  
Sea Level Pressure 30.12 in    
Wind  
Wind Speed 4 mph (SW)    
Max Wind Speed 18 mph    
Max Gust Speed 25 mph    
Visibility 8 miles    
Events      
T = Trace of Precipitation, MM = Missing Value Source: NWS Daily Summary

Daily Weather History Graph

Daily Weather History Graph

Search for Another Location

Airport:

Trip Planner

Search our weather history database for the weather conditions in past years. The results will help you decide how hot, cold, wet, or windy it might be!

Date:

Astronomy

Mar. 16, 2013 Rise Set
Actual Time 7:42 AM EDT 7:43 PM EDT
Civil Twilight 7:18 AM EDT 8:07 PM EDT
Nautical Twilight 6:51 AM EDT 8:35 PM EDT
Astronomical Twilight 6:23 AM EDT 9:03 PM EDT
Moon 10:33 AM EDT (3/16) No Moon Set
Length of Visible Light 12h 48m
Length of Day
12h 00m
Waxing Crescent, 23% of the Moon is Illuminated
Mar 16
Waxing Crescent
Mar 19
First Quarter
Mar 27
Full
Apr 3
Last Quarter
Apr 10
New

Hourly Weather History & Observations

Time (EDT) Temp. Dew Point Humidity Pressure Visibility Wind Dir Wind Speed Gust Speed Precip Events Conditions
12:15 AM 50.0 °F 46.4 °F 87% 30.20 in 10.0 mi Calm Calm - N/A   Clear
12:35 AM 48.2 °F 46.4 °F 93% 30.20 in 7.0 mi Calm Calm - N/A   Clear
12:53 AM 46.9 °F 44.1 °F 90% 30.18 in - Calm Calm - N/A   Unknown
12:55 AM 48.2 °F 46.4 °F 93% 30.19 in 10.0 mi Calm Calm - N/A   Clear
1:15 AM 48.2 °F 46.4 °F 93% 30.18 in 10.0 mi Calm Calm - N/A   Clear
1:35 AM 48.2 °F 48.2 °F 100% 30.18 in 10.0 mi Calm Calm - N/A   Clear
1:53 AM 46.0 °F 43.0 °F 89% 30.16 in - Calm Calm - N/A   Unknown
1:55 AM 46.4 °F 46.4 °F 100% 30.17 in 10.0 mi Calm Calm - N/A   Clear
2:15 AM 44.6 °F 44.6 °F 100% 30.17 in 10.0 mi Calm Calm - N/A   Clear
2:35 AM 46.4 °F 46.4 °F 100% 30.16 in 1.0 mi Calm Calm - N/A   Mist
2:53 AM 44.1 °F 42.1 °F 93% 30.15 in - Calm Calm - N/A   Unknown
2:55 AM 44.6 °F 44.6 °F 100% 30.16 in 1.0 mi Calm Calm - N/A   Mist
3:15 AM 44.6 °F 44.6 °F 100% 30.15 in 1.5 mi Calm Calm - N/A   Mist
3:35 AM 44.6 °F 44.6 °F 100% 30.15 in 2.5 mi Calm Calm - N/A   Clear
3:53 AM 43.0 °F 39.9 °F 89% 30.14 in - Calm Calm - N/A   Unknown
3:55 AM 44.6 °F 44.6 °F 100% 30.14 in 1.0 mi Calm Calm - N/A   Mist
4:15 AM 44.6 °F 44.6 °F 100% 30.13 in 2.0 mi Calm Calm - N/A   Clear
4:35 AM 44.6 °F 44.6 °F 100% 30.13 in 7.0 mi Calm Calm - N/A   Clear
4:53 AM 39.9 °F 39.9 °F 100% 30.12 in - Calm Calm - N/A   Unknown
4:55 AM 42.8 °F 42.8 °F 100% 30.13 in 1.8 mi Calm Calm - N/A   Mist
5:15 AM 44.6 °F 44.6 °F 100% 30.12 in 0.8 mi Calm Calm - N/A   Mist
5:35 AM 42.8 °F 42.8 °F 100% 30.13 in 7.0 mi Calm Calm - N/A   Clear
5:53 AM 43.0 °F 41.0 °F 93% 30.12 in - Calm Calm - N/A   Unknown
5:55 AM 44.6 °F 44.6 °F 100% 30.12 in 7.0 mi Calm Calm - N/A   Clear
6:15 AM 42.8 °F 42.8 °F 100% 30.12 in 2.5 mi Calm Calm - N/A   Clear
6:35 AM 42.8 °F 42.8 °F 100% 30.12 in 10.0 mi Calm Calm - N/A   Clear
6:53 AM 42.1 °F 39.9 °F 92% 30.12 in - Calm Calm - N/A   Unknown
6:55 AM 44.6 °F 44.6 °F 100% 30.13 in 3.0 mi Calm Calm - N/A   Clear
7:15 AM 42.8 °F 42.8 °F 100% 30.13 in 7.0 mi Calm Calm - N/A   Clear
7:35 AM 42.8 °F 42.8 °F 100% 30.14 in 1.0 mi Calm Calm - N/A   Mist
7:53 AM 42.1 °F 41.0 °F 96% 30.14 in - Calm Calm - N/A   Unknown
7:55 AM 42.8 °F 42.8 °F 100% 30.15 in 7.0 mi Calm Calm - N/A   Clear
8:15 AM 42.8 °F 42.8 °F 100% 30.15 in 3.0 mi Calm Calm - N/A   Clear
8:35 AM 44.6 °F 44.6 °F 100% 30.15 in 10.0 mi Calm Calm - N/A   Clear
8:53 AM 48.9 °F 46.9 °F 93% 30.15 in - Calm Calm - N/A   Unknown
8:55 AM 50.0 °F 50.0 °F 100% 30.16 in 10.0 mi Calm Calm - N/A   Clear
9:15 AM 53.6 °F 53.6 °F 100% 30.16 in 10.0 mi Calm Calm - N/A   Clear
9:35 AM 59.0 °F 59.0 °F 100% 30.16 in 10.0 mi Calm Calm - N/A   Clear
9:53 AM 63.0 °F 54.0 °F 72% 30.16 in - SW 9.2 mph - N/A   Unknown
9:55 AM 62.6 °F 60.8 °F 94% 30.17 in 10.0 mi WSW 9.2 mph - N/A   Clear
10:15 AM 66.2 °F 59.0 °F 78% 30.17 in 10.0 mi WSW 10.4 mph - N/A   Clear
10:35 AM 68.0 °F 57.2 °F 68% 30.17 in 10.0 mi WSW 11.5 mph 17.3 mph N/A   Clear
10:53 AM 69.1 °F 53.1 °F 57% 30.16 in - SW 13.8 mph - N/A   Unknown
10:55 AM 69.8 °F 57.2 °F 64% 30.17 in 10.0 mi WSW 12.7 mph 19.6 mph N/A   Clear
11:15 AM 69.8 °F 55.4 °F 60% 30.17 in 10.0 mi WSW 12.7 mph 21.9 mph N/A   Clear
11:35 AM 69.8 °F 57.2 °F 64% 30.17 in 10.0 mi West 13.8 mph 21.9 mph N/A   Clear
11:53 AM 70.0 °F 54.0 °F 57% 30.15 in - WSW 15.0 mph 23.0 mph 0.01 in   Unknown
11:55 AM 71.6 °F 55.4 °F 57% 30.17 in 10.0 mi WSW 16.1 mph - N/A   Clear
12:15 PM 71.6 °F 55.4 °F 57% 30.16 in 10.0 mi West 11.5 mph 21.9 mph N/A   Clear
12:35 PM 71.6 °F 55.4 °F 57% 30.15 in 10.0 mi WSW 12.7 mph 20.7 mph N/A   Clear
12:53 PM 71.1 °F 53.1 °F 53% 30.14 in - SW 18.4 mph 21.9 mph N/A   Unknown
12:55 PM 71.6 °F 55.4 °F 57% 30.15 in 10.0 mi WSW 16.1 mph 23.0 mph N/A   Clear
1:15 PM 71.6 °F 55.4 °F 57% 30.14 in 10.0 mi WSW 13.8 mph 18.4 mph N/A   Clear
1:35 PM 73.4 °F 55.4 °F 53% 30.14 in 10.0 mi WSW 15.0 mph 21.9 mph N/A   Clear
1:53 PM 73.0 °F 53.1 °F 49% 30.12 in - West 12.7 mph 23.0 mph N/A   Unknown
1:55 PM 73.4 °F 55.4 °F 53% 30.13 in 10.0 mi WSW 15.0 mph 20.7 mph N/A   Clear
2:15 PM 73.4 °F 57.2 °F 57% 30.12 in 10.0 mi WSW 16.1 mph 23.0 mph N/A   Clear
2:35 PM 71.6 °F 57.2 °F 60% 30.12 in 10.0 mi SW 15.0 mph 18.4 mph N/A   Clear
2:53 PM 73.0 °F 55.0 °F 53% 30.10 in - WSW 15.0 mph 23.0 mph N/A   Unknown
2:55 PM 73.4 °F 57.2 °F 57% 30.11 in 10.0 mi WSW 13.8 mph 21.9 mph N/A   Clear
3:15 PM 71.6 °F 57.2 °F 60% 30.10 in 10.0 mi WSW 18.4 mph 25.3 mph N/A   Clear
3:35 PM 73.4 °F 57.2 °F 57% 30.09 in 10.0 mi WSW 16.1 mph 21.9 mph N/A   Clear
3:53 PM 73.0 °F 54.0 °F 51% 30.08 in - SW 17.3 mph 24.2 mph N/A   Unknown
3:55 PM 73.4 °F 57.2 °F 57% 30.09 in 10.0 mi WSW 18.4 mph 21.9 mph N/A   Clear
4:15 PM 73.4 °F 57.2 °F 57% 30.08 in 10.0 mi SW 15.0 mph 20.7 mph N/A   Clear
4:35 PM 73.4 °F 57.2 °F 57% 30.08 in 10.0 mi SW 13.8 mph 21.9 mph N/A   Clear
4:53 PM 72.0 °F 54.0 °F 53% 30.06 in - SW 17.3 mph 25.3 mph N/A   Unknown
4:55 PM 71.6 °F 57.2 °F 60% 30.08 in 10.0 mi SW 15.0 mph 18.4 mph N/A   Clear
5:15 PM 71.6 °F 57.2 °F 60% 30.07 in 10.0 mi SW 16.1 mph - N/A   Clear
5:35 PM 71.6 °F 57.2 °F 60% 30.07 in 10.0 mi SW 13.8 mph 20.7 mph N/A   Clear
5:53 PM 70.0 °F 54.0 °F 57% 30.06 in - SW 15.0 mph 23.0 mph N/A   Unknown
5:55 PM 69.8 °F 57.2 °F 64% 30.07 in 10.0 mi SW 13.8 mph - N/A   Clear
6:15 PM 69.8 °F 55.4 °F 60% 30.07 in 10.0 mi SW 16.1 mph 19.6 mph N/A   Clear
6:35 PM 69.8 °F 55.4 °F 60% 30.06 in 10.0 mi SW 12.7 mph 17.3 mph N/A   Clear
6:53 PM 66.9 °F 53.1 °F 61% 30.05 in - SSW 10.4 mph - N/A   Unknown
6:55 PM 68.0 °F 55.4 °F 64% 30.06 in 10.0 mi SSW 12.7 mph - N/A   Clear
7:15 PM 66.2 °F 55.4 °F 68% 30.06 in 10.0 mi SSW 9.2 mph - N/A   Clear
7:35 PM 64.4 °F 57.2 °F 77% 30.07 in 10.0 mi SSW 8.1 mph - N/A   Clear
7:53 PM 62.1 °F 54.0 °F 75% 30.06 in - SSW 8.1 mph - N/A   Unknown
7:55 PM 62.6 °F 59.0 °F 88% 30.07 in 10.0 mi SSW 8.1 mph - N/A   Clear
8:15 PM 62.6 °F 59.0 °F 88% 30.07 in 10.0 mi SSW 8.1 mph - N/A   Clear
8:35 PM 62.6 °F 59.0 °F 88% 30.07 in 10.0 mi SSW 8.1 mph - N/A   Clear
8:53 PM 60.1 °F 55.0 °F 83% 30.06 in - South 5.8 mph - N/A   Unknown
8:55 PM 60.8 °F 59.0 °F 94% 30.08 in 10.0 mi SSW 4.6 mph - N/A   Clear
9:15 PM 60.8 °F 59.0 °F 94% 30.08 in 10.0 mi SSW 4.6 mph - N/A   Clear
9:35 PM 60.8 °F 59.0 °F 94% 30.09 in 10.0 mi SSW 3.5 mph - N/A   Clear
9:53 PM 57.9 °F 55.0 °F 90% 30.09 in - SSW 3.5 mph - N/A   Unknown
9:55 PM 59.0 °F 59.0 °F 100% 30.10 in 10.0 mi SSW 3.5 mph - N/A   Clear
10:15 PM 59.0 °F 59.0 °F 100% 30.10 in 10.0 mi SSW 3.5 mph - N/A   Clear
10:35 PM 59.0 °F 59.0 °F 100% 30.11 in 10.0 mi Calm Calm - N/A   Clear
10:53 PM 57.0 °F 54.0 °F 89% 30.10 in - Calm Calm - N/A   Unknown
10:55 PM 59.0 °F 59.0 °F 100% 30.11 in 10.0 mi Calm Calm - N/A   Clear
11:15 PM 59.0 °F 59.0 °F 100% 30.11 in 10.0 mi Calm Calm - N/A   Clear
11:35 PM 57.2 °F 57.2 °F 100% 30.11 in 10.0 mi Calm Calm - N/A   Clear
11:53 PM 55.9 °F 54.0 °F 93% 30.10 in - South 3.5 mph - N/A   Unknown
11:55 PM 57.2 °F 57.2 °F 100% 30.11 in 10.0 mi South 3.5 mph - N/A   Clear